User: anonymous   Login
Location: Recife
(8.0585°S, 34.8848°W)
Time: 21:52:27
(UTC-03:00)
Language:

Hubble Space Telescope - Orbit

View from above orbital plane
View from above orbital plane
View from above satellite
View from above satellite

Ground track
Ground track

The orbit data is extracted from the following two-line orbital elements,

1 20580U 90037B   21299.26218955  .00001033  00000-0  51390-4 0  9994
2 20580  28.4702 279.4720 0002753  37.0218 344.4969 15.09797666530787
Epoch (UTC): 26 October 2021 06:17:33
Eccentricity: 0.0002753
inclination: 28.4702°
perigee height: 535 km
apogee height: 539 km
right ascension of ascending node: 279.4720°
argument of perigee: 37.0218°
revolutions per day: 15.09797666
mean anomaly at epoch: 344.4969°
orbit number at epoch: 53078

The dashed part of the orbit path shows where the satellite is in the earth's shadow,  

DLR